Year,Month,Day,Hour,Minute,Value (Times are PST for temperature in C)
2018,02,02,00,00,5.70
2018,02,02,00,01,5.70
2018,02,02,00,02,5.70
2018,02,02,00,03,5.70
2018,02,02,00,04,5.70
2018,02,02,00,05,5.70
2018,02,02,00,06,5.70
2018,02,02,00,07,5.70
2018,02,02,00,08,5.70
2018,02,02,00,09,5.70
2018,02,02,00,10,5.70
2018,02,02,00,12,5.70
2018,02,02,00,13,5.70
2018,02,02,00,14,5.70
2018,02,02,00,15,5.70
2018,02,02,00,16,5.70
2018,02,02,00,17,5.70
2018,02,02,00,18,5.70
2018,02,02,00,19,5.70
2018,02,02,00,20,5.70
2018,02,02,00,21,5.70
2018,02,02,00,22,5.80
2018,02,02,00,23,5.70
2018,02,02,00,24,5.70
2018,02,02,00,25,5.80
2018,02,02,00,26,5.80
2018,02,02,00,27,5.80
2018,02,02,00,28,5.70
2018,02,02,00,29,5.80
2018,02,02,00,30,5.80
2018,02,02,00,31,5.80
2018,02,02,00,32,5.80
2018,02,02,00,33,5.80
2018,02,02,00,34,5.70
2018,02,02,00,35,5.80
2018,02,02,00,36,5.80
2018,02,02,00,37,5.70
2018,02,02,00,38,5.80
2018,02,02,00,39,5.70
2018,02,02,00,40,5.70
2018,02,02,00,41,5.70
2018,02,02,00,42,5.80
2018,02,02,00,43,5.70
2018,02,02,00,44,5.80
2018,02,02,00,45,5.70
2018,02,02,00,46,5.80
2018,02,02,00,47,5.80
2018,02,02,00,48,5.70
2018,02,02,00,49,5.80
2018,02,02,00,50,5.80
2018,02,02,00,51,5.80
2018,02,02,00,52,5.80
2018,02,02,00,53,5.80
2018,02,02,00,54,5.80
2018,02,02,00,55,5.80
2018,02,02,00,56,5.80
2018,02,02,00,57,5.80
2018,02,02,00,58,5.80
2018,02,02,00,59,5.80
2018,02,02,01,00,5.80
2018,02,02,01,01,5.80
2018,02,02,01,02,5.80
2018,02,02,01,03,5.80
2018,02,02,01,04,5.80
2018,02,02,01,05,5.80
2018,02,02,01,06,5.80
2018,02,02,01,07,5.80
2018,02,02,01,08,5.80
2018,02,02,01,09,5.80
2018,02,02,01,10,5.80
2018,02,02,01,11,5.80
2018,02,02,01,12,5.80
2018,02,02,01,13,5.80
2018,02,02,01,14,5.80
2018,02,02,01,15,5.80
2018,02,02,01,16,5.80
2018,02,02,01,17,5.80
2018,02,02,01,18,5.80
2018,02,02,01,19,5.80
2018,02,02,01,20,5.80
2018,02,02,01,21,5.80
2018,02,02,01,22,5.80
2018,02,02,01,23,5.80
2018,02,02,01,24,5.80
2018,02,02,01,25,5.80
2018,02,02,01,26,5.80
2018,02,02,01,27,5.80
2018,02,02,01,28,5.80
2018,02,02,01,29,5.80
2018,02,02,01,30,5.80
2018,02,02,01,31,5.80
2018,02,02,01,32,5.90
2018,02,02,01,33,5.80
2018,02,02,01,34,5.90
2018,02,02,01,35,5.90
2018,02,02,01,36,5.90
2018,02,02,01,37,5.90
2018,02,02,01,38,5.90
2018,02,02,01,39,5.90
2018,02,02,01,40,5.90
2018,02,02,01,42,5.90
2018,02,02,01,43,5.90
2018,02,02,01,44,5.90
2018,02,02,01,45,5.90
2018,02,02,01,46,5.90
2018,02,02,01,47,5.90
2018,02,02,01,48,5.90
2018,02,02,01,49,5.90
2018,02,02,01,50,5.90
2018,02,02,01,51,5.80
2018,02,02,01,52,5.90
2018,02,02,01,53,5.80
2018,02,02,01,54,5.80
2018,02,02,01,55,5.80
2018,02,02,01,56,5.80
2018,02,02,01,57,5.80
2018,02,02,01,58,5.80
2018,02,02,01,59,5.80
2018,02,02,02,00,5.80
2018,02,02,02,01,5.80
2018,02,02,02,02,5.80
2018,02,02,02,03,5.80
2018,02,02,02,04,5.80
2018,02,02,02,05,5.80
2018,02,02,02,06,5.80
2018,02,02,02,07,5.80
2018,02,02,02,08,5.80
2018,02,02,02,09,5.80
2018,02,02,02,10,5.80
2018,02,02,02,11,5.80
2018,02,02,02,12,5.80
2018,02,02,02,13,5.80
2018,02,02,02,14,5.80
2018,02,02,02,15,5.80
2018,02,02,02,16,5.80
2018,02,02,02,17,5.80
2018,02,02,02,18,5.80
2018,02,02,02,19,5.80
2018,02,02,02,20,5.80
2018,02,02,02,21,5.80
2018,02,02,02,22,5.80
2018,02,02,02,23,5.80
2018,02,02,02,24,5.80
2018,02,02,02,25,5.80
2018,02,02,02,26,5.80
2018,02,02,02,27,5.80
2018,02,02,02,28,5.80
2018,02,02,02,29,5.80
2018,02,02,02,30,5.80
2018,02,02,02,31,5.80
2018,02,02,02,32,5.80
2018,02,02,02,33,5.80
2018,02,02,02,34,5.80
2018,02,02,02,35,5.80
2018,02,02,02,36,5.80
2018,02,02,02,37,5.80
2018,02,02,02,38,5.80
2018,02,02,02,39,5.80
2018,02,02,02,40,5.80
2018,02,02,02,41,5.80
2018,02,02,02,42,5.80
2018,02,02,02,43,5.80
2018,02,02,02,44,5.80
2018,02,02,02,45,5.80
2018,02,02,02,46,5.80
2018,02,02,02,47,5.80
2018,02,02,02,48,5.80
2018,02,02,02,49,5.80
2018,02,02,02,50,5.80
2018,02,02,02,51,5.80
2018,02,02,02,52,5.80
2018,02,02,02,53,5.80
2018,02,02,02,54,5.80
2018,02,02,02,55,5.80
2018,02,02,02,56,5.80
2018,02,02,02,57,5.80
2018,02,02,02,58,5.80
2018,02,02,02,59,5.80
2018,02,02,03,00,5.80
2018,02,02,03,01,5.80
2018,02,02,03,02,5.80
2018,02,02,03,03,5.80
2018,02,02,03,04,5.80
2018,02,02,03,05,5.80
2018,02,02,03,06,5.80
2018,02,02,03,07,5.80
2018,02,02,03,08,5.80
2018,02,02,03,09,5.80
2018,02,02,03,10,5.80
2018,02,02,03,11,5.80
2018,02,02,03,12,5.80
2018,02,02,03,13,5.80
2018,02,02,03,14,5.80
2018,02,02,03,15,5.80
2018,02,02,03,16,5.80
2018,02,02,03,17,5.80
2018,02,02,03,18,5.80
2018,02,02,03,19,5.80
2018,02,02,03,20,5.80
2018,02,02,03,21,5.80
2018,02,02,03,22,5.80
2018,02,02,03,23,5.80
2018,02,02,03,24,5.80
2018,02,02,03,25,5.80
2018,02,02,03,26,5.80
2018,02,02,03,27,5.80
2018,02,02,03,28,5.80
2018,02,02,03,29,5.80
2018,02,02,03,30,5.80
2018,02,02,03,31,5.80
2018,02,02,03,32,5.80
2018,02,02,03,33,5.80
2018,02,02,03,34,5.80
2018,02,02,03,35,5.80
2018,02,02,03,36,5.80
2018,02,02,03,37,5.80
2018,02,02,03,38,5.80
2018,02,02,03,39,5.80
2018,02,02,03,40,5.80
2018,02,02,03,41,5.80
2018,02,02,03,42,5.80
2018,02,02,03,43,5.80
2018,02,02,03,44,5.80
2018,02,02,03,45,5.80
2018,02,02,03,46,5.80
2018,02,02,03,47,5.80
2018,02,02,03,48,5.80
2018,02,02,03,50,5.80
2018,02,02,03,51,5.80
2018,02,02,03,52,5.80
2018,02,02,03,53,5.80
2018,02,02,03,54,5.80
2018,02,02,03,55,5.80
2018,02,02,03,56,5.80
2018,02,02,03,57,5.80
2018,02,02,03,58,5.80
2018,02,02,03,59,5.80
2018,02,02,04,00,5.80
2018,02,02,04,01,5.80
2018,02,02,04,02,5.80
2018,02,02,04,03,5.80
2018,02,02,04,04,5.80
2018,02,02,04,05,5.80
2018,02,02,04,06,5.80
2018,02,02,04,07,5.80
2018,02,02,04,08,5.80
2018,02,02,04,09,5.80
2018,02,02,04,10,5.80
2018,02,02,04,11,5.80
2018,02,02,04,12,5.80
2018,02,02,04,13,5.80
2018,02,02,04,14,5.80
2018,02,02,04,15,5.80
2018,02,02,04,16,5.80
2018,02,02,04,17,5.80
2018,02,02,04,18,5.80
2018,02,02,04,19,5.80
2018,02,02,04,20,5.80
2018,02,02,04,21,5.80
2018,02,02,04,22,5.80
2018,02,02,04,23,5.80
2018,02,02,04,24,5.80
2018,02,02,04,25,5.80
2018,02,02,04,26,5.80
2018,02,02,04,27,5.80
2018,02,02,04,28,5.80
2018,02,02,04,29,5.80
2018,02,02,04,30,5.80
2018,02,02,04,31,5.80
2018,02,02,04,32,5.80
2018,02,02,04,33,5.80
2018,02,02,04,34,5.80
2018,02,02,04,35,5.80
2018,02,02,04,36,5.80
2018,02,02,04,37,5.80
2018,02,02,04,38,5.80
2018,02,02,04,39,5.80
2018,02,02,04,40,5.80
2018,02,02,04,41,5.80
2018,02,02,04,42,5.80
2018,02,02,04,43,5.70
2018,02,02,04,44,5.80
2018,02,02,04,45,5.70
2018,02,02,04,46,5.70
2018,02,02,04,47,5.70
2018,02,02,04,48,5.70
2018,02,02,04,49,5.70
2018,02,02,04,50,5.70
2018,02,02,04,51,5.70
2018,02,02,04,52,5.70
2018,02,02,04,53,5.80
2018,02,02,04,54,5.80
2018,02,02,04,55,5.80
2018,02,02,04,56,5.80
2018,02,02,04,57,5.80
2018,02,02,04,58,5.80
2018,02,02,04,59,5.80
2018,02,02,05,00,5.80
2018,02,02,05,01,5.80
2018,02,02,05,02,5.80
2018,02,02,05,03,5.80
2018,02,02,05,04,5.80
2018,02,02,05,05,5.70
2018,02,02,05,06,5.70
2018,02,02,05,07,5.80
2018,02,02,05,08,5.70
2018,02,02,05,09,5.70
2018,02,02,05,10,5.70
2018,02,02,05,11,5.80
2018,02,02,05,12,5.70
2018,02,02,05,13,5.80
2018,02,02,05,14,5.80
2018,02,02,05,15,5.70
2018,02,02,05,16,5.80
2018,02,02,05,17,5.80
2018,02,02,05,18,5.80
2018,02,02,05,19,5.70
2018,02,02,05,20,5.70
2018,02,02,05,21,5.70
2018,02,02,05,22,5.70
2018,02,02,05,23,5.70
2018,02,02,05,24,5.70
2018,02,02,05,25,5.70
2018,02,02,05,26,5.70
2018,02,02,05,27,5.70
2018,02,02,05,28,5.80
2018,02,02,05,29,5.70
2018,02,02,05,30,5.70
2018,02,02,05,31,5.70
2018,02,02,05,32,5.80
2018,02,02,05,33,5.70
2018,02,02,05,34,5.70
2018,02,02,05,35,5.80
2018,02,02,05,36,5.70
2018,02,02,05,37,5.80
2018,02,02,05,38,5.80
2018,02,02,05,39,5.80
2018,02,02,05,40,5.80
2018,02,02,05,41,5.80
2018,02,02,05,42,5.80
2018,02,02,05,43,5.80
2018,02,02,05,44,5.80
2018,02,02,05,45,5.80
2018,02,02,05,46,5.80
2018,02,02,05,47,5.80
2018,02,02,05,48,5.80
2018,02,02,05,49,5.80
2018,02,02,05,50,5.80
2018,02,02,05,51,5.80
2018,02,02,05,52,5.80
2018,02,02,05,53,5.80
2018,02,02,05,54,5.80
2018,02,02,05,55,5.80
2018,02,02,05,57,5.80
2018,02,02,05,58,5.80
2018,02,02,05,59,5.80
2018,02,02,06,00,5.70
2018,02,02,06,01,5.70
2018,02,02,06,02,5.70
2018,02,02,06,03,5.80
2018,02,02,06,04,5.80
2018,02,02,06,05,5.80
2018,02,02,06,06,5.80
2018,02,02,06,07,5.80
2018,02,02,06,08,5.70
2018,02,02,06,09,5.80
2018,02,02,06,10,5.70
2018,02,02,06,11,5.70
2018,02,02,06,12,5.80
2018,02,02,06,13,5.80
2018,02,02,06,14,5.80
2018,02,02,06,15,5.80
2018,02,02,06,16,5.80
2018,02,02,06,17,5.80
2018,02,02,06,18,5.80
2018,02,02,06,19,5.80
2018,02,02,06,20,5.80
2018,02,02,06,21,5.80
2018,02,02,06,22,5.80
2018,02,02,06,23,5.80
2018,02,02,06,24,5.80
2018,02,02,06,25,5.90
2018,02,02,06,26,5.90
2018,02,02,06,27,5.90
2018,02,02,06,28,5.90
2018,02,02,06,29,5.90
2018,02,02,06,30,5.90
2018,02,02,06,31,5.90
2018,02,02,06,32,5.90
2018,02,02,06,33,5.90
2018,02,02,06,34,5.90
2018,02,02,06,35,6.00
2018,02,02,06,36,6.00
2018,02,02,06,37,6.10
2018,02,02,06,38,6.10
2018,02,02,06,39,6.10
2018,02,02,06,41,6.10
2018,02,02,06,42,6.10
2018,02,02,06,43,6.10
2018,02,02,06,44,6.10
2018,02,02,06,45,6.10
2018,02,02,06,47,6.10
2018,02,02,06,48,6.10
2018,02,02,06,50,6.10
2018,02,02,06,51,6.20
2018,02,02,06,53,6.10
2018,02,02,06,54,6.20
2018,02,02,06,55,6.20
2018,02,02,06,56,6.20
2018,02,02,06,57,6.20
2018,02,02,06,59,6.20
2018,02,02,07,01,6.20
2018,02,02,07,03,6.20
2018,02,02,07,05,6.20
2018,02,02,07,07,6.20
2018,02,02,07,09,6.20
2018,02,02,07,12,6.20
2018,02,02,07,14,6.20
2018,02,02,07,16,6.20
2018,02,02,07,18,6.20
2018,02,02,07,20,6.20
2018,02,02,07,22,6.20
2018,02,02,07,24,6.20
2018,02,02,07,26,6.20
2018,02,02,07,29,6.20
2018,02,02,07,31,6.30
2018,02,02,07,33,6.30
2018,02,02,07,35,6.30
2018,02,02,07,38,6.30
2018,02,02,07,40,6.30
2018,02,02,07,41,6.30
2018,02,02,07,43,6.30
2018,02,02,07,44,6.30
2018,02,02,07,45,6.30
2018,02,02,07,48,6.30
2018,02,02,07,49,6.30
2018,02,02,07,52,6.30
2018,02,02,07,55,6.30
2018,02,02,07,57,6.30
2018,02,02,07,58,6.30
2018,02,02,08,00,6.40
2018,02,02,08,03,6.40
2018,02,02,08,05,6.40
2018,02,02,08,07,6.40
2018,02,02,08,08,6.40
2018,02,02,08,10,6.40
2018,02,02,08,12,6.40
2018,02,02,08,13,6.40
2018,02,02,08,15,6.40
2018,02,02,08,17,6.40
2018,02,02,08,19,6.40
2018,02,02,08,21,6.40
2018,02,02,08,23,6.40
2018,02,02,08,24,6.40
2018,02,02,08,25,6.40
2018,02,02,08,26,6.30
2018,02,02,08,28,6.30
2018,02,02,08,30,6.30
2018,02,02,08,32,6.30
2018,02,02,08,33,6.30
2018,02,02,08,36,6.30
2018,02,02,08,38,6.30
2018,02,02,08,40,6.30
2018,02,02,08,41,6.40
2018,02,02,08,43,6.40
2018,02,02,08,45,6.40
2018,02,02,08,47,6.40
2018,02,02,08,49,6.50
2018,02,02,08,52,6.50
2018,02,02,08,55,6.50
2018,02,02,08,57,6.50
2018,02,02,08,58,6.50
2018,02,02,09,00,6.60
2018,02,02,09,03,6.60
2018,02,02,09,05,6.60
2018,02,02,09,06,6.60
2018,02,02,09,08,6.60
2018,02,02,09,11,6.60
2018,02,02,09,14,6.60
2018,02,02,09,16,6.60
2018,02,02,09,17,6.60
2018,02,02,09,19,6.60
2018,02,02,09,22,6.60
2018,02,02,09,26,6.70
2018,02,02,09,29,6.70
2018,02,02,09,32,6.70
2018,02,02,09,36,6.70
2018,02,02,09,41,6.70
2018,02,02,09,47,6.80
2018,02,02,09,55,6.80
2018,02,02,10,08,7.00
2018,02,02,10,17,7.10
2018,02,02,10,39,7.40
2018,02,02,10,43,7.50
2018,02,02,12,03,8.50
2018,02,02,13,12,10.60
2018,02,02,13,13,10.60
2018,02,02,13,50,11.10
2018,02,02,14,09,11.30
2018,02,02,15,00,11.40
2018,02,02,15,42,11.10
2018,02,02,17,08,10.40
2018,02,02,17,09,10.40
2018,02,02,17,30,10.30
2018,02,02,17,54,10.40
2018,02,02,18,04,10.30
2018,02,02,18,19,10.20
2018,02,02,18,57,10.20
2018,02,02,19,53,9.90
2018,02,02,21,18,9.60
2018,02,02,21,34,9.50
2018,02,02,22,32,9.40
2018,02,02,22,40,9.50
2018,02,02,23,31,10.10
2018,02,02,23,59,10.10
